SVA571 OMAA-OEJN

Flight info

Callsign SVA571
Flight time N/A
Altitude 38000
Route ATUDO M318 GOLGU M550 RIBOT/N0510F280 M550 MEVDO Y511 ASMIS T218 IMGUT M309 VEMEM
Aircraft B77W/H-SDE1E2E3FGHIJ2J3J4J5M1RWXY/LB1D1

Departure

Time N/A
Airport Zayed International Airport (OMAA)

Arrival

Time 2026-05-08 06:31
Airport King Abdulaziz International Airport (OEJN)
Time Latitude Longitude Altitude Speed Heading
2026-05-08 06:17 21.33272 39.35229 2987 ft 221 kts 246°
2026-05-08 06:17 21.32791 39.33975 2982 ft 219 kts 261°
2026-05-08 06:17 21.32756 39.32787 2988 ft 213 kts 286°
2026-05-08 06:18 21.33134 39.31819 2954 ft 210 kts 309°
2026-05-08 06:18 21.33765 39.31151 2854 ft 206 kts 330°
2026-05-08 06:18 21.34502 39.30770 2755 ft 204 kts 341°
2026-05-08 06:18 21.35312 39.30466 2671 ft 202 kts 341°
2026-05-08 06:19 21.36041 39.30163 2590 ft 202 kts 339°
2026-05-08 06:19 21.36976 39.29761 2450 ft 202 kts 340°
2026-05-08 06:19 21.38056 39.29324 2284 ft 201 kts 340°
2026-05-08 06:19 21.38913 39.28981 2155 ft 200 kts 340°
2026-05-08 06:20 21.39636 39.28693 2154 ft 195 kts 341°
2026-05-08 06:20 21.40312 39.28425 2165 ft 202 kts 341°
2026-05-08 06:20 21.41145 39.28097 2112 ft 207 kts 341°
2026-05-08 06:20 21.42039 39.27743 2091 ft 209 kts 341°
2026-05-08 06:21 21.42807 39.27439 2091 ft 210 kts 341°
2026-05-08 06:21 21.44448 39.26791 2087 ft 210 kts 341°
2026-05-08 06:21 21.44943 39.26595 2086 ft 210 kts 340°
2026-05-08 06:22 21.45700 39.26295 2086 ft 210 kts 340°
2026-05-08 06:22 21.47553 39.25560 2052 ft 186 kts 341°
2026-05-08 06:22 21.48216 39.25298 2056 ft 174 kts 341°
2026-05-08 06:23 21.49361 39.24845 2044 ft 150 kts 341°
2026-05-08 06:23 21.50011 39.24589 2018 ft 141 kts 341°
2026-05-08 06:23 21.50659 39.24335 2078 ft 140 kts 341°
2026-05-08 06:24 21.51194 39.24126 2134 ft 156 kts 341°
2026-05-08 06:24 21.52045 39.23795 2143 ft 156 kts 341°
2026-05-08 06:24 21.52958 39.23438 2069 ft 156 kts 341°
2026-05-08 06:24 21.53743 39.23130 2095 ft 157 kts 341°
2026-05-08 06:25 21.54286 39.22918 2098 ft 163 kts 341°
2026-05-08 06:25 21.54873 39.22686 2110 ft 162 kts 341°
2026-05-08 06:25 21.55434 39.22463 2063 ft 151 kts 341°
2026-05-08 06:25 21.55944 39.22261 2019 ft 143 kts 341°
2026-05-08 06:26 21.56474 39.22052 2061 ft 143 kts 341°
2026-05-08 06:26 21.57029 39.21834 2085 ft 149 kts 341°
2026-05-08 06:26 21.57921 39.21484 1890 ft 145 kts 341°
2026-05-08 06:26 21.58584 39.21223 1752 ft 144 kts 341°
2026-05-08 06:27 21.59465 39.20877 1578 ft 144 kts 341°
2026-05-08 06:27 21.60096 39.20629 1452 ft 144 kts 341°
2026-05-08 06:27 21.60665 39.20405 1333 ft 141 kts 341°
2026-05-08 06:27 21.61183 39.20201 1220 ft 140 kts 341°
2026-05-08 06:28 21.61689 39.20002 1117 ft 139 kts 340°
2026-05-08 06:28 21.62165 39.19815 1021 ft 139 kts 340°
2026-05-08 06:28 21.62692 39.19608 915 ft 138 kts 340°
2026-05-08 06:28 21.63257 39.19385 801 ft 138 kts 340°
2026-05-08 06:29 21.63767 39.19185 698 ft 138 kts 340°
2026-05-08 06:29 21.64321 39.18967 585 ft 138 kts 340°
2026-05-08 06:29 21.64817 39.18771 479 ft 138 kts 340°
2026-05-08 06:29 21.65314 39.18578 343 ft 137 kts 340°
2026-05-08 06:30 21.65832 39.18378 243 ft 136 kts 340°
2026-05-08 06:30 21.66347 39.18173 165 ft 137 kts 340°
2026-05-08 06:30 21.66756 39.18011 91 ft 136 kts 340°
2026-05-08 06:30 21.67219 39.17830 70 ft 128 kts 340°
2026-05-08 06:31 21.67727 39.17631 62 ft 93 kts 340°
2026-05-08 06:31 21.68023 39.17509 62 ft 38 kts 339°
2026-05-08 06:31 21.68123 39.17470 62 ft 7 kts 339°
2026-05-08 06:31 21.68220 39.17419 62 ft 5 kts 328°
2026-05-08 06:32 21.68252 39.17394 62 ft 10 kts 323°
2026-05-08 06:32 21.68299 39.17351 62 ft 14 kts 316°
2026-05-08 06:32 21.68347 39.17294 62 ft 16 kts 311°
2026-05-08 06:32 21.68396 39.17232 62 ft 16 kts 310°
2026-05-08 06:33 21.68421 39.17172 62 ft 12 kts 255°
2026-05-08 06:33 21.68378 39.17144 62 ft 11 kts 179°
2026-05-08 06:33 21.68325 39.17157 62 ft 12 kts 163°
2026-05-08 06:33 21.68276 39.17174 62 ft 12 kts 161°
2026-05-08 06:34 21.68224 39.17194 62 ft 13 kts 160°
2026-05-08 06:34 21.68169 39.17215 62 ft 14 kts 160°
2026-05-08 06:34 21.68113 39.17238 62 ft 14 kts 160°
2026-05-08 06:34 21.68055 39.17260 62 ft 15 kts 160°
2026-05-08 06:35 21.67991 39.17285 62 ft 15 kts 160°
2026-05-08 06:35 21.67927 39.17307 62 ft 13 kts 178°
2026-05-08 06:35 21.67882 39.17278 62 ft 12 kts 220°
2026-05-08 06:35 21.67835 39.17256 62 ft 10 kts 182°
2026-05-08 06:36 21.67789 39.17267 62 ft 11 kts 162°
2026-05-08 06:36 21.67732 39.17287 62 ft 12 kts 161°
2026-05-08 06:36 21.67671 39.17312 62 ft 15 kts 159°
2026-05-08 06:36 21.67594 39.17342 62 ft 19 kts 159°
2026-05-08 06:37 21.67499 39.17380 62 ft 22 kts 160°
2026-05-08 06:37 21.67355 39.17437 62 ft 23 kts 160°
2026-05-08 06:37 21.67256 39.17476 62 ft 18 kts 159°
2026-05-08 06:37 21.67216 39.17489 62 ft 3 kts 177°
2026-05-08 06:38 21.67203 39.17479 62 ft 4 kts 245°
2026-05-08 06:38 21.67195 39.17447 62 ft 6 kts 257°
2026-05-08 06:38 21.67198 39.17417 62 ft 5 kts 289°
2026-05-08 06:38 21.67211 39.17395 62 ft 6 kts 303°
2026-05-08 06:39 21.67230 39.17370 62 ft 6 kts 310°
2026-05-08 06:39 21.67248 39.17347 62 ft 6 kts 310°
2026-05-08 06:39 21.67257 39.17335 62 ft 0 kts 310°